TimeEDT,TemperatureF,Dew PointF,Humidity,Sea Level PressureIn,VisibilityMPH,Wind Direction,Wind SpeedMPH,Gust SpeedMPH,PrecipitationIn,Events,Conditions,WindDirDegrees,DateUTC
12:54 AM,43.0,35.1,74,29.94,10.0,West,11.5,-,N/A,,Clear,270,2012-10-07 04:54:00
1:54 AM,42.1,35.1,76,29.97,10.0,WSW,5.8,-,N/A,,Clear,250,2012-10-07 05:54:00
3:54 AM,43.0,34.0,71,29.96,10.0,NW,11.5,20.7,N/A,,Clear,310,2012-10-07 07:54:00
4:54 AM,41.0,34.0,76,29.98,10.0,WNW,6.9,16.1,N/A,,Clear,300,2012-10-07 08:54:00
5:54 AM,42.1,34.0,73,30.01,10.0,NW,6.9,-,N/A,,Clear,310,2012-10-07 09:54:00
6:54 AM,42.1,34.0,73,30.01,10.0,NW,4.6,-,N/A,,Clear,320,2012-10-07 10:54:00
7:54 AM,42.1,35.1,76,30.04,10.0,WSW,3.5,-,N/A,,Partly Cloudy,240,2012-10-07 11:54:00
8:54 AM,44.1,36.0,73,30.05,10.0,Calm,Calm,-,N/A,,Clear,0,2012-10-07 12:54:00
9:54 AM,45.0,37.0,74,30.06,10.0,WSW,5.8,-,N/A,,Overcast,240,2012-10-07 13:54:00
10:54 AM,46.9,37.9,71,30.05,10.0,WSW,4.6,-,N/A,,Clear,240,2012-10-07 14:54:00
11:54 AM,48.0,39.0,71,30.06,10.0,West,8.1,-,N/A,,Clear,270,2012-10-07 15:54:00
12:54 PM,48.0,39.0,71,30.05,10.0,West,6.9,-,N/A,,Mostly Cloudy,260,2012-10-07 16:54:00
1:54 PM,48.0,37.9,68,30.03,10.0,WNW,5.8,-,N/A,,Mostly Cloudy,290,2012-10-07 17:54:00
2:30 PM,48.2,37.4,66,30.03,10.0,Calm,Calm,-,N/A,,Mostly Cloudy,0,2012-10-07 18:30:00
2:50 PM,48.2,37.4,66,30.02,10.0,Calm,Calm,-,N/A,,Overcast,0,2012-10-07 18:50:00
2:54 PM,48.9,37.0,64,30.01,10.0,Calm,Calm,-,N/A,,Overcast,0,2012-10-07 18:54:00
3:54 PM,50.0,37.9,63,29.99,10.0,Calm,Calm,-,N/A,,Overcast,0,2012-10-07 19:54:00
4:54 PM,48.9,37.9,66,30.00,10.0,Calm,Calm,-,N/A,,Overcast,0,2012-10-07 20:54:00
5:54 PM,46.9,39.9,77,30.00,10.0,Calm,Calm,-,0.00,,Overcast,0,2012-10-07 21:54:00
6:54 PM,46.0,41.0,83,29.99,10.0,SW,3.5,-,N/A,,Mostly Cloudy,230,2012-10-07 22:54:00
7:54 PM,46.0,41.0,83,30.02,10.0,Calm,Calm,-,0.00,Rain,Light Rain,0,2012-10-07 23:54:00
8:54 PM,45.0,42.1,90,30.05,7.0,SSW,3.5,-,0.03,Rain,Light Rain,210,2012-10-08 00:54:00
9:54 PM,43.0,41.0,93,30.04,7.0,Calm,Calm,-,0.07,Rain,Light Rain,0,2012-10-08 01:54:00
10:20 PM,42.8,41.0,93,30.04,4.0,Calm,Calm,-,0.03,Rain,Light Rain,0,2012-10-08 02:20:00
10:54 PM,43.0,42.1,97,30.04,6.0,Calm,Calm,-,0.05,Rain,Light Rain,0,2012-10-08 02:54:00
11:07 PM,42.8,42.8,100,30.06,8.0,SSW,3.5,-,0.00,Rain,Light Rain,210,2012-10-08 03:07:00
11:30 PM,44.6,42.8,93,30.06,4.0,SW,4.6,-,0.01,Rain,Light Rain,220,2012-10-08 03:30:00
11:37 PM,42.8,42.8,100,30.06,4.0,WSW,3.5,-,0.02,Rain,Light Rain,240,2012-10-08 03:37:00
11:51 PM,42.8,42.8,100,30.06,10.0,WSW,3.5,-,0.02,Rain,Light Rain,240,2012-10-08 03:51:00
11:54 PM,43.0,42.1,97,30.05,10.0,WSW,5.8,-,0.02,Rain,Light Rain,250,2012-10-08 03:54:00